Regional Weather Roundup
Issued by NWS

Home | Current Version | Previous Version | Graphics & Text | Print | Product List | Glossary Off
Versions: 1 2 3 4 5 6 7 8 9 10 11 12 13 14 15 16 17 18 19 20 21 22 23 24 25 26 27

000
ASUS45 KTFX 041010
RWRMT
MONTANA REGIONAL WEATHER ROUNDUP
NATIONAL WEATHER SERVICE GREAT FALLS MT
400 AM MDT WED MAY 04 2016

NOTE: "FAIR" INDICATES FEW OR NO CLOUDS BELOW 12000 FEET WITH NO
SIGNIFICANT WEATHER AND/OR OBSTRUCTIONS TO VISIBILITY.

MTZ001>007-043-041100-
WEST OF THE DIVIDE

CITY           SKY/WX    TMP DP  RH WIND       PRES   REMARKS
KALISPELL      CLEAR     45  42  89 CALM      29.99S
MISSOULA       CLEAR     47  37  68 CALM      30.06R
BUTTE          CLEAR     39  28  64 SE7       30.16S
MULLAN PASS    PTCLDY    53  28  38 S6        30.12F
$$

MTZ008-052>055-041100-
SOUTHWEST MONTANA

CITY           SKY/WX    TMP DP  RH WIND       PRES   REMARKS
BOZEMAN        CLEAR     44  33  65 S8        30.12F
DILLON         CLEAR     50  27  40 S10       30.14F
ENNIS          CLEAR     43  27  52 S15       30.21F
$$

MTZ009-010-012-014-046-048-049-054-041100-
EAST SLOPES AND CENTRAL MONTANA

CITY           SKY/WX    TMP DP  RH WIND       PRES   REMARKS
CUT BANK       CLEAR     45  33  63 NW5       30.02S
GREAT FALLS    CLEAR     50  37  61 S12       30.01F
MALMSTROM AFB  CLEAR     46  39  76 S2        30.02S
HELENA         CLEAR     50  34  54 CALM      30.07S
$$

MTZ011-013-016-021-045-047-050-051-041100-
NORTH CENTRAL MONTANA

CITY           SKY/WX    TMP DP  RH WIND       PRES   REMARKS
HAVRE          CLEAR     48  43  82 CALM      29.98S
LEWISTOWN      CLEAR     48  35  60 SE8       30.07F
N BAR RANCH      N/A     54  34  47 N8        30.12S
$$

MTZ017>020-022>027-061-062-041100-
NORTHEAST MONTANA

CITY           SKY/WX    TMP DP  RH WIND       PRES   REMARKS
GLASGOW        CLEAR     51  39  63 E10       30.03S
JORDAN           N/A     43  41  93 CALM      30.05S
SIDNEY         CLEAR     45  39  81 CALM      30.08R
WOLF POINT     CLEAR     48  40  73 NE5       30.05S
$$

MTZ028>42-056>058-041100-
SOUTHCENTRAL AND SOUTHEAST MONTANA

CITY           SKY/WX    TMP DP  RH WIND       PRES   REMARKS
BAKER          CLEAR     50  38  63 S9        30.11S
BILLINGS       CLEAR     54  38  54 SW7       30.09S
LIVINGSTON     CLEAR     40  31  70 SW3       30.13S
MILES CITY     CLEAR     52  40  63 SE9       30.07S
$$

REGIONAL REPORTS...DAKOTAS

CITY           SKY/WX    TMP DP  RH WIND       PRES   REMARKS
WILLISTON      CLEAR     47  40  76 SW3       30.07S
MINOT          PTCLDY    45  30  55 SE5       30.08S
DICKINSON      CLEAR     41  33  73 S8        30.09S
BEACH            N/A     45  39  81 SE5       30.13S
CROSBY           N/A     48  36  61 S13       30.07S
TIOGA            N/A     39  36  87 E6        30.12S
WATFORD CITY     N/A     41  39  93 CALM      30.08F
BISMARCK       CLEAR     38  32  79 CALM      30.11S
GRAND FORKS    CLEAR     34  29  82 NW7       30.05S WCI  28
FARGO          CLEAR     38  28  67 NW8       30.04R
BUFFALO SD       N/A     54  36  50 CALM      30.07R
RAPID CITY     CLEAR     47  37  68 NW10      30.13S
$$

REGIONAL REPORTS...WYOMING/IDAHO/WASHINGTON

CITY           SKY/WX    TMP DP  RH WIND       PRES   REMARKS
GILLETTE       CLEAR     48  38  68 S14       30.16S
SHERIDAN       CLEAR     40  34  79 CALM      30.11F
BUFFALO WY     CLEAR     50  31  48 W6        30.16F
CODY           CLEAR     54  28  37 SW8       30.16S
YELLOWSTONE LA   N/A     27  23  85 CALM      30.35F
IDAHO FALLS    CLEAR     39  31  72 N5        30.18S
SALMON         CLEAR     41  28  60 CALM      30.12R
BOISE          PTCLDY    59  35  40 SE5       29.98F
SPOKANE        PTCLDY    57  41  55 S8        29.96S
$$

REGIONAL REPORTS...ALBERTA

CITY           SKY/WX    TMP DP  RH WIND       PRES   REMARKS
EDMONTON       PTCLDY    54  32  43 W7        29.80S
CALGARY        PTCLDY    52  28  40 SW6       29.94F
LETHBRIDGE     CLEAR     46  36  66 W5        29.96S
MEDICINE HAT   CLEAR     55  41  58 S10       29.94S
WATERTON GATE    N/A     48  36  61 SW9         N/A
CARDSTON         N/A     54  34  47 SW9         N/A
MILK RIVER       N/A     41  36  81 W6          N/A
ONEFOUR          N/A     52  39  62 E7          N/A
$$

REGIONAL REPORTS...SASKATCHEWAN

CITY           SKY/WX    TMP DP  RH WIND       PRES   REMARKS
SWIFT CURRENT  CLEAR     54  39  58 S14       29.97F
REGINA         CLEAR     45  34  65 SE10      30.00F
SASKATOON      PTCLDY    54  41  62 S9        29.91F
CYPRESS HILLS    N/A     54  37  54 S5          N/A
VAL MARIE        N/A     41  36  81 NE5         N/A
ROCKGLEN         N/A     52  36  54 S7          N/A
ASSINIBOIA       N/A     46  39  76 S6          N/A
$$




USA.gov is the U.S. government's official web portal to all federal, state and local government web resources and services.